TimeEDT,TemperatureF,Dew PointF,Humidity,Sea Level PressureIn,VisibilityMPH,Wind Direction,Wind SpeedMPH,Gust SpeedMPH,PrecipitationIn,Events,Conditions,WindDirDegrees,DateUTC
12:01 AM,57.2,57.2,100,29.32,3.0,ESE,17.3,-,N/A,,Overcast,110,2012-10-30 04:01:00
12:30 AM,57.2,57.2,100,29.34,3.0,ESE,18.4,-,N/A,,Overcast,110,2012-10-30 04:30:00
12:44 AM,57.2,57.2,100,29.34,3.0,ESE,17.3,-,N/A,,Overcast,110,2012-10-30 04:44:00
12:54 AM,57.9,57.0,97,29.34,3.0,ESE,18.4,-,N/A,,Overcast,110,2012-10-30 04:54:00
1:34 AM,57.2,57.2,100,29.36,3.0,ESE,15.0,-,N/A,,Overcast,110,2012-10-30 05:34:00
1:54 AM,57.9,57.0,97,29.37,3.0,ESE,16.1,-,N/A,,Overcast,110,2012-10-30 05:54:00
2:54 AM,57.9,55.9,93,29.39,6.0,ESE,18.4,-,0.00,,Overcast,110,2012-10-30 06:54:00
3:54 AM,57.9,55.9,93,29.39,7.0,ESE,17.3,-,0.00,,Mostly Cloudy,110,2012-10-30 07:54:00
4:44 AM,57.2,55.4,94,29.41,5.0,ESE,12.7,-,N/A,,Mostly Cloudy,110,2012-10-30 08:44:00
4:54 AM,57.0,55.0,93,29.42,4.0,ESE,15.0,-,N/A,,Mostly Cloudy,110,2012-10-30 08:54:00
5:01 AM,57.2,55.4,94,29.42,4.0,ESE,12.7,-,N/A,,Mostly Cloudy,110,2012-10-30 09:01:00
5:54 AM,57.0,55.9,96,29.43,5.0,ESE,15.0,-,0.00,,Overcast,110,2012-10-30 09:54:00
6:54 AM,57.9,55.9,93,29.47,3.0,SE,13.8,-,0.06,Rain,Light Rain,130,2012-10-30 10:54:00
7:54 AM,57.0,55.0,93,29.49,5.0,ESE,15.0,-,0.00,Rain,Light Rain,110,2012-10-30 11:54:00
8:54 AM,59.0,55.9,90,29.53,7.0,ESE,15.0,-,0.00,,Overcast,120,2012-10-30 12:54:00
9:54 AM,60.1,57.0,90,29.56,7.0,ESE,12.7,-,0.00,,Mostly Cloudy,120,2012-10-30 13:54:00
10:54 AM,60.1,57.9,93,29.57,6.0,ESE,12.7,-,N/A,,Mostly Cloudy,110,2012-10-30 14:54:00
11:54 AM,61.0,57.9,90,29.57,6.0,ESE,16.1,-,0.00,,Mostly Cloudy,110,2012-10-30 15:54:00
12:54 PM,61.0,57.0,87,29.57,8.0,ESE,16.1,-,N/A,,Mostly Cloudy,110,2012-10-30 16:54:00
1:54 PM,59.0,57.0,93,29.58,6.0,ESE,16.1,-,0.00,Rain,Light Rain,110,2012-10-30 17:54:00
2:54 PM,59.0,57.9,96,29.57,6.0,ESE,15.0,-,0.00,,Overcast,110,2012-10-30 18:54:00
3:54 PM,59.0,57.0,93,29.56,6.0,East,15.0,-,0.00,,Mostly Cloudy,100,2012-10-30 19:54:00
4:54 PM,57.0,55.9,96,29.57,6.0,ESE,10.4,-,N/A,,Mostly Cloudy,110,2012-10-30 20:54:00
5:54 PM,57.0,55.9,96,29.56,5.0,ESE,12.7,-,0.03,Rain,Light Rain,120,2012-10-30 21:54:00
6:23 PM,57.2,57.2,100,29.56,5.0,SSE,5.8,-,0.02,Rain,Light Rain,150,2012-10-30 22:23:00
6:32 PM,57.2,57.2,100,29.56,4.0,Calm,Calm,-,0.05,Rain,Rain,0,2012-10-30 22:32:00
6:54 PM,57.0,57.0,100,29.54,6.0,East,6.9,-,0.05,Rain,Light Rain,90,2012-10-30 22:54:00
7:02 PM,57.2,57.2,100,29.55,5.0,East,5.8,-,0.00,Rain,Light Rain,100,2012-10-30 23:02:00
7:13 PM,57.2,57.2,100,29.54,6.0,East,6.9,-,0.00,,Overcast,90,2012-10-30 23:13:00
7:49 PM,57.2,57.2,100,29.53,6.0,East,4.6,-,0.00,,Overcast,90,2012-10-30 23:49:00
7:54 PM,57.0,57.0,100,29.54,6.0,ESE,8.1,-,0.00,,Overcast,120,2012-10-30 23:54:00
8:13 PM,57.2,57.2,100,29.53,7.0,ESE,6.9,-,N/A,,Overcast,110,2012-10-31 00:13:00
8:22 PM,57.2,55.4,94,29.59,1.5,South,21.9,28.8,0.02,Rain,Heavy Rain,190,2012-10-31 00:22:00
8:31 PM,55.4,55.4,100,29.56,1.8,SSE,11.5,28.8,0.29,Rain-Thunderstorm,Heavy Thunderstorms and Rain,160,2012-10-31 00:31:00
8:47 PM,55.4,55.4,100,29.53,4.0,East,9.2,-,0.34,Rain-Thunderstorm,Thunderstorms and Rain,100,2012-10-31 00:47:00
8:54 PM,54.0,54.0,100,29.54,7.0,East,8.1,-,0.35,Rain-Thunderstorm,Light Thunderstorms and Rain,90,2012-10-31 00:54:00
8:56 PM,53.6,53.6,100,29.54,6.0,East,6.9,-,0.00,Rain,Light Rain,80,2012-10-31 00:56:00
9:54 PM,54.0,53.1,97,29.57,10.0,SE,4.6,-,0.00,,Scattered Clouds,140,2012-10-31 01:54:00
10:54 PM,53.1,52.0,96,29.55,10.0,SE,3.5,-,N/A,,Scattered Clouds,140,2012-10-31 02:54:00
11:54 PM,54.0,52.0,93,29.55,10.0,Calm,Calm,-,N/A,,Scattered Clouds,0,2012-10-31 03:54:00